GFSGL_prec_cloud_003.txt.gz
Cloud_Cover
100 98 100 100 100 100 100 100 100 100 98 100 95 100 100 100 100 100 100 100 100 100 100 100 100 100 100 100 100 100 100 100 100 100 100 100 100 100 100 100 100 100 100
95 94 100 100 100 100 100 100 100 100 100 100 47 100 100 100 100 100 100 100 100 100 100 100 100 100 100 91 100 100 100 100 100 100 100 100 100 100 100 100 100 100 100
100 100 100 100 100 100 100 100 100 100 100 100 100 100 100 100 100 100 100 100 100 100 100 100 100 100 99 100 100 100 100 100 100 100 100 100 100 100 100 100 97 100 86
91 100 100 100 100 100 100 100 100 100 100 100 100 100 100 100 100 100 100 100 100 100 100 100 100 100 100 100 100 100 100 100 100 100 100 100 100 100 100 100 100 100 100
82 100 97 100 100 100 100 100 100 100 100 100 100 100 100 100 100 100 100 100 100 100 100 100 100 100 100 100 100 100 100 100 100 100 100 100 100 100 100 100 100 100 100
62 58 100 100 100 100 100 100 100 100 100 100 100 100 100 100 100 100 100 100 100 100 100 100 100 100 100 100 100 100 100 100 100 100 100 100 100 100 100 100 100 100 100
87 96 88 99 96 39 96 99 100 100 97 76 39 90 92 91 100 100 100 100 100 100 100 100 100 100 100 100 100 100 100 100 100 100 100 100 100 100 100 100 100 100 100
100 100 100 88 70 69 91 59 63 80 56 58 88 95 87 100 96 78 92 97 95 100 99 99 100 100 100 100 100 100 100 100 100 100 100 100 100 100 100 97 89 95 11
99 100 100 100 59 66 52 64 78 100 94 98 99 88 68 95 100 100 100 100 88 15 44 94 96 96 100 100 100 98 99 87 86 34 37 21 5 5 5 5 5 6 13
83 100 100 80 88 95 100 100 100 100 100 98 70 99 98 100 99 53 66 31 57 98 89 100 100 98 93 94 99 100 100 100 100 100 94 100 100 97 94 65 67 85 22
100 100 100 100 100 95 100 100 100 100 64 100 100 100 92 89 82 100 99 39 17 90 84 100 100 100 89 100 100 100 100 100 100 100 100 98 100 100 90 100 98 50 68
100 100 100 99 88 100 100 100 100 99 98 100 100 99 100 94 96 100 100 100 100 99 100 99 100 100 100 100 100 100 100 100 100 100 100 98 100 100 95 100 100 91 31
100 100 100 100 100 98 100 100 100 100 100 100 100 100 100 100 100 100 100 100 100 100 100 100 100 100 100 100 100 100 100 100 100 100 100 100 100 100 100 100 100 100 100
100 100 100 100 100 100 100 100 100 100 100 100 100 100 100 100 100 100 100 100 100 100 100 100 100 100 100 100 100 100 100 100 100 100 100 100 100 100 100 100 100 100 100
100 100 100 100 100 96 82 98 100 100 100 100 100 100 100 100 100 100 100 100 100 100 100 100 100 100 100 100 100 100 100 100 100 100 100 100 100 100 100 100 100 100 100
100 100 100 100 100 100 99 100 32 65 82 91 90 41 53 31 74 97 100 100 100 100 100 100 100 100 100 100 100 100 100 100 100 100 100 100 100 100 100 100 100 100 100
54 69 76 90 99 100 68 5 6 5 5 62 71 73 41 5 5 42 6 34 17 58 100 100 100 100 100 100 100 100 100 100 100 100 100 100 100 100 100 100 100 100 100
72 28 39 48 37 5 5 5 5 5 5 5 5 5 5 36 19 5 12 23 34 42 89 97 100 99 90 80 100 100 100 100 100 100 100 100 86 82 100 100 95 99 97
97 7 15 44 19 5 5 5 6 6 6 5 5 26 10 6 40 20 47 62 78 55 38 37 52 26 31 56 53 49 37 30 7 9 25 46 32 16 22 21 31 5 3
12 51 47 27 10 12 19 5 5 5 6 16 31 46 78 100 100 100 100 83 25 39 32 12 10 5 5 5 4 5 5 5 5 5 5 0 0 0 2 4 4 5 26
79 100 100 100 57 7 87 69 53 10 75 91 100 100 100 100 100 93 55 26 7 6 2 0 0 0 1 5 5 5 5 5 5 5 0 2 5 6 67 86 93 80 79
100 100 100 100 100 100 100 100 100 100 100 100 100 91 32 5 5 5 1 0 0 0 0 0 0 0 0 4 4 11 5 21 47 5 4 2 10 100 100 100 96 86 98
100 100 100 100 100 100 100 100 100 100 100 96 80 86 90 46 5 4 2 4 5 5 5 5 4 4 5 42 60 73 43 74 42 99 100 89 72 80 81 100 80 67 91
100 100 100 99 98 100 100 100 100 100 82 50 8 5 5 3 0 0 3 5 5 2 16 23 12 61 76 57 77 77 89 86 51 100 100 100 100 100 100 100 100 100 100
89 100 100 100 100 100 100 94 57 7 16 22 4 2 0 0 1 5 5 5 4 67 72 31 22 4 5 4 2 28 5 5 98 100 100 100 100 100 100 100 100 100 100
100 100 100 100 100 100 100 100 37 10 5 4 4 0 0 4 5 5 1 6 39 63 88 65 70 2 1 4 2 9 5 26 100 100 100 100 100 100 100 100 100 100 100

GFSGL_prec_cloud_006.txt.gz
Cloud_Cover
13 100 100 100 100 100 100 100 100 100 100 100 100 99 100 100 100 100 100 100 100 100 100 100 100 100 100 100 100 100 100 100 100 100 100 100 100 100 100 100 100 100 100
61 100 100 100 100 100 100 100 100 100 100 92 100 100 100 100 100 100 100 100 100 100 100 100 100 100 100 100 100 100 100 100 100 100 100 100 100 100 100 100 100 100 83
68 72 100 100 100 98 100 100 100 100 100 100 100 86 99 100 100 100 100 100 100 100 100 100 100 100 100 100 100 100 100 100 100 100 100 100 100 100 100 100 100 100 100
100 100 100 100 100 100 100 100 100 100 100 100 100 100 100 100 100 100 100 100 100 100 100 100 100 100 100 100 100 100 100 100 100 100 100 100 100 100 100 100 100 100 100
100 100 100 100 100 100 100 100 100 100 100 100 100 100 100 100 100 100 100 100 100 100 100 100 100 100 100 100 100 100 100 100 100 100 100 100 100 100 99 100 100 100 83
8 24 100 100 100 100 72 100 100 100 100 100 100 100 100 100 100 100 100 100 100 100 100 100 100 100 100 100 100 100 100 100 100 100 100 100 100 100 100 100 100 100 100
100 91 100 100 100 100 95 61 85 100 100 100 100 100 100 100 100 100 100 100 100 100 100 100 100 100 100 100 100 100 100 100 100 100 100 100 100 100 100 100 100 100 100
95 94 100 100 100 81 100 73 66 51 93 100 100 100 100 100 100 100 100 100 100 100 100 100 100 100 100 100 100 100 100 100 100 100 100 100 100 100 100 100 100 100 74
93 99 100 100 95 87 48 95 100 97 56 30 32 49 81 100 100 100 100 100 100 100 100 100 100 100 100 100 100 100 100 100 100 100 100 100 100 100 100 100 97 64 45
75 95 100 98 85 100 82 52 100 100 86 100 97 33 15 47 100 100 100 100 100 100 100 100 100 100 100 100 100 100 100 100 100 100 100 100 100 100 100 100 100 100 100
99 100 63 100 98 99 58 100 100 100 100 100 80 42 99 100 100 100 100 67 86 85 88 75 78 62 100 61 93 100 100 100 100 100 100 100 100 100 100 100 100 100 100
100 100 100 100 100 100 100 100 100 100 100 100 99 100 100 100 100 100 100 100 100 100 100 100 100 100 100 100 100 100 100 100 100 100 100 100 100 100 100 100 100 100 100
100 100 100 100 100 100 100 100 100 100 100 100 100 100 100 100 100 100 100 100 100 100 100 100 100 100 100 100 100 100 100 100 100 100 100 100 100 100 100 98 100 100 100
100 100 100 100 100 100 99 96 99 100 100 100 100 100 100 100 100 100 100 100 100 100 100 100 100 100 100 100 100 100 100 100 100 100 100 100 100 100 100 100 100 100 100
100 100 100 100 100 94 100 94 96 100 99 100 100 100 94 100 82 66 51 26 37 61 93 100 100 100 100 100 100 100 100 100 100 100 100 100 100 100 100 100 100 100 100
64 83 88 95 100 80 48 88 75 34 6 38 47 10 6 3 2 2 5 5 5 5 11 19 77 100 100 100 100 100 100 100 100 100 100 100 100 100 100 100 100 100 100
99 7 11 7 5 6 9 18 5 4 5 5 5 3 0 0 0 4 0 5 5 5 5 5 5 5 5 9 42 97 90 100 100 100 99 94 50 81 94 98 100 100 100
52 44 11 5 5 5 5 5 5 4 4 5 5 4 5 5 5 5 2 4 5 2 0 0 5 5 34 37 33 8 5 5 11 5 2 5 0 2 10 22 20 23 24
5 18 5 5 5 5 5 5 10 5 6 5 11 5 5 5 5 5 2 5 5 5 5 5 13 39 51 13 5 5 3 5 3 2 5 4 0 0 0 2 0 8 9
5 40 13 5 5 6 58 70 78 44 39 66 84 50 5 5 66 91 23 5 7 5 5 5 7 17 2 0 3 4 5 6 43 5 4 0 0 0 3 5 5 8 86
100 97 79 88 100 19 5 9 5 5 81 93 65 68 89 32 5 5 6 52 100 99 14 2 0 0 0 3 0 3 5 6 5 5 3 3 0 0 4 82 100 100 100
99 100 100 90 61 28 38 91 83 94 68 79 88 78 78 34 83 100 100 68 5 3 3 2 0 0 3 1 2 5 4 97 82 5 1 4 3 7 72 98 100 100 100
100 100 100 100 70 96 98 99 100 100 92 89 100 100 100 100 95 17 9 5 0 5 3 0 0 32 4 5 5 5 69 81 44 4 3 5 11 92 100 100 100 100 100
100 100 100 100 100 96 100 100 100 100 100 100 100 66 64 22 5 3 1 2 0 1 10 5 5 5 4 2 4 77 14 5 5 5 5 22 74 100 100 100 100 100 100
100 100 100 100 100 100 87 100 100 100 100 100 100 100 64 4 0 1 5 1 0 40 14 5 5 0 0 0 0 0 0 0 3 5 32 47 84 100 100 100 100 100 100
100 100 100 98 100 100 100 100 100 100 100 87 15 4 1 0 5 3 4 0 0 5 5 5 11 6 1 0 0 0 1 3 5 5 7 56 92 100 100 100 100 100 100

GFSGL_prec_cloud_009.txt.gz
Cloud_Cover
5 98 100 97 70 94 84 64 99 100 100 98 100 100 100 100 100 100 100 100 100 100 100 100 100 100 100 100 100 100 100 100 100 100 100 100 100 100 100 100 100 100 100
4 81 100 100 100 88 16 83 80 72 100 89 100 100 100 100 100 100 100 100 100 100 100 100 100 100 100 100 100 100 100 100 100 100 100 100 100 100 100 100 100 100 100
5 5 100 100 100 92 42 71 85 89 98 100 100 100 96 100 100 100 100 100 100 100 100 100 100 100 100 100 100 100 100 100 100 100 100 100 100 100 100 100 100 100 100
0 1 100 100 100 100 100 100 100 100 100 75 60 94 100 97 100 100 100 100 100 100 100 100 100 100 100 100 100 100 100 100 100 100 100 100 100 100 100 100 100 100 100
0 25 100 100 100 100 100 100 100 100 100 100 100 99 99 100 100 100 100 100 100 100 100 100 100 100 100 100 100 100 100 100 100 100 100 100 100 100 100 100 97 99 100
100 5 47 100 100 100 100 100 100 100 100 100 100 100 100 100 100 100 100 100 100 100 100 100 100 100 100 100 100 100 100 100 100 100 100 100 100 100 100 100 100 100 100
100 100 100 100 100 100 100 100 59 66 100 100 100 100 100 100 100 100 100 100 100 100 100 100 100 100 100 100 100 100 100 100 100 100 100 100 100 100 100 100 100 100 100
22 92 91 64 100 100 100 100 100 94 100 80 100 100 100 100 100 100 100 100 100 100 100 100 100 100 100 100 100 100 100 100 100 100 100 100 100 100 100 100 100 100 100
98 100 100 100 100 97 29 97 100 100 100 87 29 99 100 100 100 100 100 100 100 100 100 100 100 100 100 100 100 100 100 100 100 100 100 100 100 100 100 100 100 100 100
100 100 100 100 95 100 90 63 15 23 98 99 61 96 100 100 100 100 99 99 99 100 100 100 100 100 100 100 100 100 100 100 100 100 100 100 100 100 100 100 100 100 100
100 90 100 100 66 98 95 81 21 92 89 100 97 100 100 100 100 100 100 100 87 100 100 100 100 92 95 96 100 100 100 100 100 100 100 99 100 100 100 100 100 100 100
100 100 100 85 99 96 100 100 100 100 100 100 99 100 100 100 100 98 100 100 97 100 100 100 100 100 100 100 100 100 100 100 100 99 100 79 99 100 100 100 100 100 100
100 100 100 100 100 100 100 100 100 100 100 100 100 100 100 100 100 100 100 100 100 96 100 100 100 100 100 100 100 100 100 100 100 100 100 100 100 100 100 100 100 100 100
100 100 100 100 100 100 80 77 100 100 97 100 100 100 100 100 100 99 100 90 71 57 88 99 96 93 71 91 100 100 85 37 66 89 99 100 100 100 100 100 100 99 100
100 99 100 96 73 35 14 34 100 95 84 65 92 40 75 100 89 24 11 18 0 0 0 0 0 0 0 0 0 0 0 0 3 5 33 97 100 100 100 100 100 100 100
97 83 73 100 99 66 26 45 39 8 6 21 5 9 6 3 0 0 0 0 0 0 0 0 0 0 0 0 0 0 0 0 0 0 0 0 5 24 56 100 100 100 100
9 5 34 57 50 43 6 5 5 4 5 5 3 0 0 0 0 0 4 5 0 5 5 0 0 0 0 0 0 0 0 0 1 5 4 0 0 4 4 3 0 0 0
77 77 32 34 9 64 18 5 5 5 5 5 4 4 5 5 5 5 5 5 5 5 5 4 0 0 2 5 4 2 5 0 1 1 3 0 0 0 0 0 0 0 0
2 2 5 1 0 1 5 5 5 5 50 6 5 5 5 5 5 5 5 5 5 5 4 3 0 1 1 3 5 5 5 3 1 0 0 0 0 0 0 0 0 2 5
5 3 3 2 5 5 58 44 5 20 12 5 5 5 14 61 27 11 4 5 5 5 4 5 7 20 75 58 4 0 0 5 5 5 0 0 0 0 0 0 0 3 60
5 5 5 38 54 100 65 42 5 39 100 100 100 91 49 19 30 65 100 97 99 63 31 40 8 5 5 4 0 0 2 5 5 5 5 0 0 0 0 0 5 30 100
75 71 43 97 100 100 94 32 24 7 78 84 99 97 99 92 78 15 14 5 8 65 99 52 2 0 0 0 0 2 3 5 5 5 5 0 0 0 2 5 47 92 100
96 100 100 100 100 100 94 50 89 100 95 91 63 13 5 5 5 14 68 100 74 8 3 0 0 0 3 4 0 3 8 8 5 5 5 5 0 5 5 5 73 100 100
100 100 100 100 100 80 12 85 69 100 100 67 72 71 80 90 100 100 83 11 6 3 0 0 0 0 0 0 0 0 1 5 5 3 1 0 1 5 5 32 57 100 100
100 100 98 100 100 100 100 100 100 96 83 92 100 100 100 98 84 21 4 0 0 0 0 0 0 0 0 0 0 0 0 0 0 0 0 2 5 5 5 7 40 84 100
100 100 100 100 100 100 100 100 100 100 100 100 100 76 85 75 8 0 0 0 0 0 0 0 2 2 0 0 0 0 0 0 0 0 1 5 8 55 75 100 100 100 100

GFSGL_prec_cloud_015.txt.gz
Cloud_Cover
5 4 0 0 0 4 37 65 12 32 65 41 80 88 33 59 45 44 27 100 100 100 100 100 100 100 100 100 100 100 100 100 100 100 100 100 100 100 100 100 100 100 100
1 5 0 0 0 10 57 100 100 100 88 96 100 100 100 100 100 86 100 100 100 100 100 100 100 100 100 100 100 100 100 100 100 100 100 100 100 100 100 100 100 100 100
0 0 0 0 0 2 94 100 100 100 100 100 96 100 100 90 100 100 100 100 100 100 100 100 100 100 100 100 100 100 100 100 100 100 100 100 100 100 100 100 100 100 100
1 2 4 0 0 0 94 100 100 100 48 84 96 91 96 100 100 100 100 100 100 100 100 100 100 100 100 100 100 100 100 100 100 100 100 100 100 100 100 100 100 100 100
5 5 4 0 0 13 56 100 100 100 100 98 100 100 100 100 97 100 100 100 100 100 100 100 100 100 100 100 100 100 100 100 100 100 100 100 100 100 100 100 100 100 100
4 5 34 0 12 24 58 100 100 100 100 100 100 100 100 100 100 100 100 100 100 100 100 100 100 100 100 100 100 100 100 100 100 100 100 100 100 100 100 100 100 100 100
54 12 82 6 28 70 100 100 100 100 100 100 100 100 100 100 100 87 95 100 100 100 100 100 100 100 100 100 100 100 100 100 100 100 100 100 100 100 100 100 100 100 100
26 35 10 10 95 94 98 76 92 96 58 98 39 100 100 100 100 87 54 74 91 100 100 100 100 100 100 100 100 100 100 100 100 100 100 100 100 100 100 100 100 100 100
51 12 33 100 100 76 80 92 54 99 43 10 59 100 100 100 100 100 92 99 97 95 100 96 90 100 100 100 100 100 100 100 100 100 100 100 100 100 100 100 100 100 100
100 85 85 100 100 100 85 100 97 54 6 22 86 100 100 100 92 100 97 91 29 39 82 78 89 100 100 100 99 94 97 100 100 100 100 100 100 100 100 100 100 100 100
100 100 100 100 100 100 100 93 69 34 51 42 40 100 100 98 100 100 100 56 68 100 88 100 100 100 100 100 96 99 100 100 100 100 100 100 100 100 97 77 100 100 100
100 100 100 100 97 92 87 100 98 86 99 98 61 100 100 100 100 100 100 96 78 95 100 92 100 100 100 100 100 100 100 100 88 98 100 100 100 100 80 83 86 96 76
100 100 100 100 100 100 100 100 100 100 100 100 100 100 100 100 100 100 100 92 85 81 74 100 96 100 100 100 100 61 33 10 6 6 3 0 0 0 0 0 4 5 5
100 100 100 100 100 100 100 100 100 100 100 100 100 100 100 100 100 100 100 98 100 86 78 83 30 0 0 0 0 0 0 0 0 0 0 0 0 1 3 3 4 5 18
100 100 100 100 100 100 100 100 100 100 90 100 100 100 84 99 97 95 67 73 8 0 0 0 0 0 0 0 0 0 0 0 0 0 0 0 0 0 0 0 0 0 0
100 100 100 100 96 97 89 99 93 84 73 70 57 42 29 11 6 4 0 0 0 0 0 0 0 0 0 0 0 0 0 0 0 0 0 0 0 0 0 0 0 0 0
100 81 83 31 7 27 66 53 23 5 5 5 5 5 20 5 5 5 5 5 1 5 5 5 5 5 3 4 5 5 3 2 0 0 0 0 0 0 0 0 0 0 0
6 5 9 5 6 5 5 5 5 5 5 25 78 100 100 76 5 5 5 6 5 8 5 6 5 5 5 5 5 5 5 1 3 0 0 0 0 0 0 0 0 0 0
100 9 4 5 5 5 5 27 23 55 10 90 100 91 69 59 81 98 84 58 89 82 16 42 47 10 5 5 5 5 5 2 0 0 0 0 0 0 0 0 0 0 0
99 100 79 5 17 76 66 100 100 94 100 86 97 68 95 100 76 56 71 96 100 100 100 100 71 5 5 5 5 5 0 0 0 0 0 0 0 0 0 0 0 0 0
100 86 54 11 74 8 100 100 100 81 77 90 100 100 100 100 100 100 100 100 100 100 100 76 33 6 5 5 5 5 1 0 0 0 0 5 1 0 0 0 0 0 0
63 65 58 5 25 28 100 90 78 72 87 77 69 75 95 100 100 100 100 92 91 41 6 24 77 98 7 5 5 0 0 0 0 0 2 5 1 0 0 0 0 0 0
91 78 93 100 82 76 100 100 91 96 100 100 100 100 100 100 100 100 100 94 39 36 92 100 88 10 5 3 0 0 0 0 0 0 0 0 0 0 0 0 0 0 0
100 97 100 100 90 61 93 100 100 100 100 100 100 100 100 100 100 100 100 100 100 79 45 93 18 5 2 0 0 0 0 0 0 0 0 0 0 0 0 0 0 0 0
100 100 100 99 99 80 63 99 100 100 100 100 100 100 100 100 100 100 100 90 66 63 5 5 5 2 0 0 0 0 0 0 0 0 0 0 0 0 0 0 0 0 4
100 100 100 92 100 81 92 83 90 100 100 100 100 99 100 100 100 100 100 100 100 48 5 4 0 0 0 0 0 0 0 0 0 0 0 0 0 0 0 0 0 0 0

GFSGL_prec_cloud_021.txt.gz
Cloud_Cover
10 19 23 2 8 29 38 62 74 95 100 100 99 100 70 58 56 62 53 54 52 79 99 100 100 100 100 100 100 100 100 100 100 100 100 100 100 100 100 100 100 100 100
90 38 20 5 17 49 46 56 43 92 100 100 100 100 100 100 99 100 98 100 100 100 100 100 100 100 100 100 100 100 100 100 100 100 100 100 100 100 100 100 100 100 100
72 60 7 5 30 71 55 59 46 96 100 100 100 100 100 100 100 94 100 100 100 100 89 100 100 100 100 100 100 100 100 100 100 100 100 100 100 100 100 100 100 100 100
98 29 5 4 37 84 72 80 90 96 100 100 100 100 100 100 100 100 99 100 100 100 100 100 100 100 100 100 100 100 100 100 100 100 100 100 100 100 100 100 100 100 100
76 16 5 0 58 85 94 98 60 94 97 100 100 100 100 100 100 100 100 99 96 100 100 100 100 100 100 100 100 100 100 100 100 100 100 100 100 100 100 100 100 100 100
41 11 5 4 96 100 100 73 62 81 96 99 100 99 66 68 64 80 72 100 100 100 100 100 100 100 100 100 100 100 100 100 100 100 100 100 100 100 100 100 100 100 100
47 70 8 20 90 100 100 98 92 72 94 73 76 94 96 67 36 38 25 90 94 89 42 100 100 100 100 100 100 100 100 100 100 100 100 100 100 100 100 100 100 100 100
46 44 8 28 100 100 100 100 96 98 100 100 76 82 67 57 13 5 5 5 5 5 8 42 94 100 100 100 100 100 100 100 100 100 100 100 100 100 100 100 100 100 100
53 93 53 72 100 100 100 100 47 62 100 100 100 98 39 14 5 5 5 5 5 6 20 40 13 5 16 68 94 100 100 100 100 100 100 100 100 100 100 100 100 100 100
100 95 100 100 100 100 100 98 92 66 89 100 100 100 100 9 19 13 12 5 5 5 9 14 40 86 78 95 98 92 95 65 56 70 75 89 49 58 90 99 99 98 84
100 100 100 100 100 100 92 72 100 41 46 79 76 99 100 100 100 100 80 23 22 22 40 67 85 53 72 23 38 78 63 100 59 33 87 5 6 5 13 12 5 11 1
100 100 100 100 100 100 100 90 100 90 84 100 99 93 100 100 100 94 100 100 78 75 72 73 71 33 32 24 60 73 80 59 48 17 1 0 0 0 0 0 0 0 0
100 100 100 100 100 100 100 100 100 100 99 96 100 100 100 100 98 100 100 100 94 98 94 93 100 58 22 0 0 0 0 0 0 0 0 0 0 0 0 0 0 0 0
100 100 100 100 100 100 100 100 100 100 100 100 100 100 96 100 100 100 100 100 100 50 99 44 2 3 7 8 4 5 13 38 42 22 5 4 0 1 0 0 0 0 1
100 100 100 100 100 100 100 100 100 100 100 100 100 100 100 100 100 98 96 100 71 50 5 41 7 91 100 100 100 100 100 100 100 98 7 5 5 5 5 4 5 4 4
100 99 100 100 100 100 100 100 100 100 100 100 100 98 100 100 100 100 95 33 8 7 13 48 54 58 86 100 100 100 100 94 64 32 10 5 5 5 5 5 5 2 0
100 100 100 100 90 82 74 62 65 23 67 7 9 8 16 6 5 5 1 61 100 97 92 5 7 87 100 100 100 100 98 84 70 57 75 64 8 5 5 0 0 0 0
100 98 58 32 46 6 5 6 24 37 7 8 5 5 5 2 0 4 5 48 90 100 100 66 74 100 89 100 100 100 99 97 100 92 8 8 5 5 2 0 0 0 0
100 100 100 96 28 63 77 45 59 48 10 5 5 4 5 4 5 32 13 9 100 100 98 99 100 100 100 100 100 100 100 72 6 28 5 5 5 5 2 0 0 0 0
100 97 15 26 58 75 50 7 16 5 5 13 74 42 37 35 84 79 68 100 100 100 100 100 67 94 100 100 100 100 97 52 6 5 5 5 0 0 0 0 0 0 0
67 97 29 5 5 5 9 5 5 5 5 5 6 33 51 84 100 100 100 100 97 94 100 100 100 100 100 100 100 99 46 22 5 5 5 3 0 0 0 0 0 0 0
5 5 19 5 5 5 39 45 62 42 87 100 60 92 100 100 100 100 100 97 82 95 100 100 100 99 100 98 92 94 97 6 5 5 4 0 0 0 0 0 0 0 0
48 6 5 19 32 72 68 26 5 16 88 98 100 100 91 99 97 100 92 100 100 100 100 100 100 100 89 100 99 100 88 76 30 5 0 0 0 0 0 0 0 0 0
8 5 22 48 84 97 95 92 89 32 76 91 99 98 98 100 100 100 100 100 100 100 86 100 100 98 98 100 100 100 100 24 5 4 0 0 0 0 0 0 0 0 0
10 51 100 99 94 94 100 97 100 97 100 80 100 100 100 100 100 100 100 100 100 89 100 100 100 100 100 100 100 61 5 5 4 0 0 0 0 0 0 0 0 0 0
100 85 81 77 99 96 90 95 100 88 99 100 100 98 100 99 100 100 100 100 100 100 100 100 100 100 100 96 53 10 5 4 0 0 0 0 0 0 0 0 0 0 0

GFSGL_prec_cloud_027.txt.gz
Cloud_Cover
41 12 55 90 30 42 35 6 94 97 96 97 98 89 96 98 86 71 100 100 100 100 100 100 100 100 100 100 100 100 100 100 100 100 100 100 100 100 100 100 100 100 100
35 88 17 27 38 72 65 49 84 93 70 100 100 90 100 91 84 87 98 52 42 100 100 88 70 98 100 100 100 100 100 100 100 100 100 100 100 100 100 100 100 100 100
5 42 20 69 22 79 74 54 100 76 44 13 100 96 100 100 100 100 88 98 93 93 91 76 95 100 88 100 99 100 100 100 100 100 100 100 100 100 100 100 100 100 100
5 89 47 89 67 8 34 95 90 91 71 4 100 99 99 100 90 100 96 80 81 71 78 93 74 100 100 100 100 100 100 100 100 100 100 100 100 100 100 100 100 100 100
54 100 60 55 78 17 46 100 78 82 41 48 58 28 93 72 78 93 96 77 61 60 64 31 68 49 99 100 100 100 100 100 100 100 100 100 100 100 100 100 100 100 100
48 40 80 40 100 11 77 99 100 100 100 52 57 91 74 13 24 98 100 100 95 100 100 77 8 6 69 61 33 36 64 96 100 100 100 100 100 100 100 100 100 100 100
15 48 71 99 96 24 58 87 54 93 92 38 81 95 60 4 0 0 94 100 100 100 98 74 82 73 83 19 32 10 34 80 96 100 100 100 99 100 100 100 100 100 100
85 100 96 78 100 21 53 100 70 92 100 90 100 77 7 6 4 0 19 94 95 71 44 3 7 10 5 5 19 60 84 94 100 92 77 60 99 100 100 100 100 100 100
100 99 87 100 99 68 98 100 99 100 100 100 100 100 50 5 5 3 26 65 66 43 3 2 4 5 5 5 14 5 14 17 11 13 59 83 21 21 42 90 100 100 100
100 100 98 98 99 81 99 100 100 90 89 100 100 58 100 13 6 5 7 99 92 88 7 4 5 5 5 5 100 97 30 16 9 53 20 20 5 6 15 5 5 91 100
100 100 100 100 100 100 100 100 100 69 100 100 100 56 64 46 15 7 19 90 100 100 57 4 5 5 5 5 19 26 4 64 31 16 96 6 5 2 0 0 0 0 0
100 100 100 100 100 100 100 100 100 100 100 100 96 68 80 81 95 100 87 29 59 97 93 13 8 26 30 82 5 2 0 0 0 0 0 0 0 0 0 9 30 16 5
100 100 100 100 100 100 100 100 100 93 100 100 100 100 98 100 100 100 100 99 100 100 100 37 87 25 88 28 0 0 0 0 0 0 0 5 10 21 36 32 10 59 100
100 100 100 100 100 100 100 100 100 100 100 100 100 100 100 100 100 98 100 100 88 100 100 22 6 5 4 2 5 3 0 0 0 3 4 5 8 8 9 83 100 100 100
100 100 100 100 100 100 100 100 100 100 100 100 100 100 100 100 92 58 44 100 100 58 79 6 4 3 0 0 1 0 3 5 5 8 51 58 58 95 100 100 100 100 100
100 100 100 90 100 100 100 99 100 100 100 91 100 100 100 100 97 100 100 100 89 11 4 4 5 2 3 3 2 5 5 5 34 5 32 66 100 88 50 96 100 100 100
90 82 77 59 100 100 97 96 100 99 66 100 100 91 100 100 100 87 54 17 5 25 4 5 5 5 4 5 5 5 45 92 100 100 100 100 92 70 100 100 100 100 100
93 86 100 100 100 100 100 100 100 100 99 8 18 77 82 99 33 1 0 2 0 0 1 5 5 8 14 52 92 100 98 100 100 100 100 82 51 100 100 98 100 100 78
21 7 2 0 0 29 97 98 88 100 93 67 24 8 4 3 0 0 4 5 5 5 33 59 84 76 82 88 95 99 100 100 100 100 100 100 100 100 100 100 92 86 40
0 0 0 0 0 0 0 0 0 1 3 5 5 5 5 5 5 5 5 5 5 5 55 12 46 100 100 100 100 100 100 100 100 100 100 100 100 100 100 100 97 100 21
6 3 2 0 0 0 3 5 5 4 2 5 4 0 0 0 5 5 4 5 5 6 71 100 100 100 100 100 100 100 100 100 100 100 100 100 100 100 100 100 100 78 5
11 2 2 3 5 5 5 5 10 28 29 3 4 0 0 0 0 0 5 5 5 5 64 90 93 99 100 100 100 100 100 100 100 100 100 100 100 100 100 100 100 100 58
0 2 5 3 5 5 29 52 78 73 24 44 15 33 3 1 4 5 5 5 6 84 98 100 100 100 100 99 98 100 100 100 100 100 100 100 100 100 100 100 100 100 38
25 19 87 100 100 84 95 74 68 50 5 14 100 28 96 95 77 51 5 5 5 7 58 100 100 100 100 100 100 100 100 100 100 100 100 100 100 100 94 75 72 42 57
96 44 27 76 100 46 72 88 27 95 100 82 99 10 17 54 89 98 100 72 41 90 100 94 100 85 98 59 9 21 100 100 65 92 78 85 84 72 80 100 100 78 35
62 58 84 100 92 100 78 96 99 93 93 90 100 76 98 97 100 93 98 100 100 100 52 79 91 100 91 85 100 97 48 57 54 90 98 100 100 100 100 65 12 5 2